Temperature
15 15 15 16 15 16 16 16 17 18 18 17 17 16 16 15 15 15 15 15 15 15 15 15 15 15 15 15 15 15 15 15 15 15 15 15 15 15
15 15 15 15 16 15 15 16 16 16 17 18 16 16 15 15 15 15 15 15 15 15 15 15 15 15 15 15 15 15 15 15 15 15 15 15 15 15
15 15 15 15 15 15 15 15 15 15 16 16 16 16 15 15 15 15 15 15 15 15 15 15 15 15 15 15 15 15 15 15 15 15 15 15 15 15
15 14 14 14 14 15 15 15 15 15 15 15 15 15 14 14 14 15 15 15 15 15 15 15 15 15 15 15 15 15 15 15 15 15 15 15 15 15
15 14 14 14 14 14 14 14 14 14 14 14 15 15 14 14 14 14 14 14 15 15 15 15 15 15 15 15 15 15 15 15 15 15 15 15 15 15
14 14 14 14 14 13 13 14 14 14 14 14 14 14 14 14 13 13 14 14 14 14 14 14 14 14 15 15 15 15 15 15 15 15 14 14 14 14
14 14 13 13 13 13 13 13 13 13 13 13 13 13 13 13 13 13 13 13 13 13 13 14 14 14 14 14 14 14 14 14 14 14 14 14 14 14
13 13 13 13 13 13 13 12 12 12 12 12 12 12 12 12 12 12 12 12 12 13 12 13 13 13 13 13 13 13 13 14 14 14 14 14 14 14
12 12 12 12 12 11 11 11 11 11 11 11 11 11 11 11 11 11 10 10 11 11 11 11 12 12 12 12 12 12 12 13 13 13 13 13 13 13
11 11 11 11 11 11 11 10 10 10 10 10 10 10 10 10 10 9 9 9 10 10 10 10 11 11 11 11 11 11 11 12 12 12 12 12 13 13
10 10 10 10 10 10 9 9 9 9 9 9 9 9 9 9 9 8 8 8 9 10 10 9 10 10 10 10 11 11 10 10 11 11 11 11 12 12
9 9 9 9 9 9 8 8 7 7 7 8 7 8 7 7 7 7 7 7 8 9 9 8 9 9 9 10 10 10 10 10 10 10 10 10 10 10
9 8 8 8 8 7 7 7 6 7 7 7 7 7 7 7 7 6 6 6 6 7 7 7 7 8 8 8 9 9 9 9 9 9 9 9 10 9
7 7 7 7 7 7 6 6 6 6 6 6 6 7 7 6 6 6 5 5 5 5 6 6 6 6 6 7 7 8 8 8 8 8 9 9 9 9
6 6 6 6 6 5 5 5 5 5 5 5 6 6 5 5 5 5 5 5 5 5 5 5 5 5 5 6 6 7 7 7 8 8 8 8 9 9
5 5 5 5 5 5 5 5 4 4 4 4 4 4 4 4 4 4 4 4 4 5 5 5 4 4 5 5 5 6 6 7 7 7 8 8 8 8
5 5 5 5 5 5 4 4 3 3 3 3 3 3 3 3 3 3 3 3 3 4 4 4 4 4 4 4 5 5 6 6 6 7 7 7 7 8
4 4 4 4 4 3 3 3 2 2 2 2 2 2 2 2 2 2 2 2 3 3 3 3 3 3 4 4 5 5 5 5 6 6 6 6 7 7
3 4 3 3 2 2 2 1 1 1 1 1 1 1 1 1 1 1 1 2 2 2 2 2 2 3 3 3 4 5 4 5 5 5 6 6 6 6
3 3 2 2 1 1 1 1 0 0 0 0 0 0 0 0 0 1 1 1 1 1 1 2 2 2 2 2 3 4 4 4 4 5 5 5 6 6
2 2 1 1 1 0 0 -0 -0 -0 -0 -0 -0 -0 -0 -0 -0 -0 0 0 0 1 1 1 2 2 2 2 2 3 4 4 4 4 4 4 5 5
1 1 1 0 0 -0 -0 -1 -1 -1 -1 -1 -1 -1 -1 -1 -1 -1 -0 -0 0 0 1 1 1 1 2 2 2 3 3 4 4 4 4 4 4 5
0 0 0 -0 -0 -0 -1 -1 -1 -1 -1 -1 -1 -1 -1 -1 -1 -1 -1 -0 -0 -0 0 0 1 1 1 2 2 2 3 3 4 4 5 5 5 5
Wind_Speed
5 5 5 3 4 4 4 5 6 6 5 4 5 4 4 5 3 6 8 9 11 13 14 14 14 14 14 14 14 14 15 15 15 15 16 16 17 17
4 4 5 5 4 5 5 5 6 7 7 4 3 4 3 6 6 7 9 8 13 15 16 16 16 17 17 17 17 17 17 18 18 17 18 18 18 18
6 6 7 6 5 5 5 6 6 6 7 7 5 4 5 8 6 8 10 11 12 18 18 18 19 20 20 20 20 20 20 21 21 20 20 20 20 20
7 6 7 6 6 6 5 6 6 6 8 9 8 7 7 8 8 8 10 11 12 12 18 18 20 21 22 22 22 23 23 23 23 23 23 23 22 22
5 5 6 6 6 6 6 6 6 6 7 8 9 7 7 7 7 9 11 10 13 13 15 20 22 22 23 24 24 25 25 25 25 25 25 25 25 24
3 3 3 3 4 5 6 6 6 7 7 8 9 8 7 7 7 9 9 8 9 12 12 13 16 21 24 26 26 26 26 26 26 26 26 26 27 26
1 1 2 3 4 3 4 4 5 6 7 7 8 8 7 6 7 7 9 10 10 11 11 11 10 12 14 21 25 26 26 25 25 26 26 27 27 28
2 2 2 3 2 2 3 4 4 6 6 7 7 8 8 7 6 8 10 11 11 7 8 11 11 12 13 16 15 16 20 22 23 25 26 27 27 28
3 2 2 3 3 3 2 2 3 3 4 7 8 9 8 7 8 10 10 11 12 11 11 14 13 14 13 17 17 15 17 19 22 24 25 26 27 28
5 4 4 4 7 7 6 5 5 4 4 5 6 7 8 8 8 10 12 13 14 12 11 13 13 13 13 15 17 18 20 22 24 25 26 26 27 27
4 5 4 5 8 8 6 6 6 6 4 5 6 9 11 11 10 9 11 11 12 12 9 11 13 14 14 14 16 18 20 22 24 25 25 26 26 25
2 3 7 7 7 8 7 7 7 8 9 9 8 10 11 12 12 10 10 11 12 12 9 9 12 12 13 13 12 12 14 17 22 25 27 27 26 21
3 3 4 7 6 6 8 7 7 9 11 11 10 10 9 8 8 8 8 9 11 12 11 11 13 13 14 15 14 14 14 14 15 17 21 25 26 21
5 5 5 6 7 9 7 5 8 11 10 9 9 9 9 8 8 9 11 12 13 15 16 15 14 14 15 17 16 15 15 15 15 16 16 17 20 25
5 4 4 7 10 9 6 7 10 9 8 9 10 9 9 10 10 10 12 12 14 16 16 16 14 14 14 16 17 16 16 16 15 16 16 16 16 15
7 5 10 12 10 9 8 6 6 7 8 9 10 10 10 10 10 10 11 11 12 13 13 15 15 15 15 16 16 17 17 16 16 17 17 17 17 16
10 10 8 7 7 7 7 7 8 8 8 8 9 10 10 10 10 10 10 11 12 13 13 13 13 13 14 15 16 17 17 17 16 16 16 18 18 17
10 7 7 7 8 8 9 9 9 8 9 9 10 10 10 10 11 11 11 12 12 13 13 14 14 14 14 14 14 17 16 16 16 16 16 18 19 18
7 7 7 8 8 8 9 9 9 9 9 9 10 10 10 10 11 11 12 12 12 13 13 13 13 13 14 16 15 13 15 16 17 16 16 17 18 18
7 8 8 8 8 9 9 9 9 10 9 10 10 10 10 10 11 11 11 13 13 14 14 14 13 12 13 15 16 18 18 18 17 17 17 17 18 18
8 8 8 8 8 9 9 9 10 10 10 10 10 11 10 11 11 12 12 15 14 13 14 14 14 16 15 13 13 15 17 17 17 17 18 17 18 17
8 8 8 9 9 9 9 9 10 10 11 10 10 11 11 11 12 14 13 13 13 13 15 15 16 15 13 14 16 18 20 19 18 19 21 21 17 16
9 9 9 9 9 9 9 10 11 10 10 10 11 11 12 12 12 12 13 13 13 14 15 15 14 13 14 14 16 16 20 20 16 16 16 17 20 25
Wind_Direction
221 212 235 233 242 255 263 272 278 278 264 205 230 213 232 242 200 244 248 208 217 229 233 236 239 242 246 249 253 256 258 260 261 261 260 259 258 257
244 250 246 246 241 244 249 254 261 272 278 272 236 247 261 273 211 242 255 217 225 230 235 239 242 245 248 250 253 255 257 258 259 260 259 258 257 256
230 231 235 255 254 251 245 249 251 256 264 270 261 242 240 265 263 257 258 253 245 220 227 236 243 246 249 251 253 254 255 255 256 257 257 257 256 254
234 238 242 237 238 257 259 256 256 260 263 272 275 263 240 248 257 262 265 260 264 228 217 233 242 247 249 252 254 255 255 255 255 255 255 255 255 254
235 237 244 247 246 252 257 262 263 258 258 267 270 277 271 263 263 261 264 264 268 261 226 229 238 244 249 252 254 255 255 255 254 254 254 254 254 253
225 233 247 253 256 262 258 262 268 271 267 267 273 275 272 273 272 273 274 265 267 276 275 263 247 240 245 248 250 251 252 253 254 254 254 254 254 253
167 132 80 62 34 346 300 289 279 269 268 268 271 274 275 281 278 281 281 284 276 273 274 270 264 260 254 245 244 246 247 249 252 254 255 256 255 254
110 101 117 96 80 78 15 345 323 289 283 280 277 279 283 286 289 286 287 285 283 284 289 282 283 280 276 272 266 248 242 245 250 254 257 257 257 256
66 49 30 47 23 351 321 255 275 270 278 285 285 286 290 297 299 289 283 282 282 289 291 281 278 276 275 275 275 264 251 249 252 255 257 258 258 258
59 48 39 32 24 0 338 325 312 302 288 281 295 298 300 304 293 285 284 279 274 267 261 272 278 277 277 276 271 260 253 252 254 257 258 259 259 258
59 52 41 43 38 358 329 321 314 308 263 234 263 275 281 280 278 282 280 279 280 281 274 275 282 285 285 283 278 263 252 251 251 254 257 259 259 260
69 96 75 48 28 356 332 321 313 316 315 303 275 261 265 262 241 250 272 280 284 287 288 286 286 290 289 281 281 285 276 264 256 253 252 252 253 259
349 340 62 54 8 335 312 311 323 311 298 290 287 285 279 276 271 265 274 282 287 286 294 296 291 288 284 287 288 286 284 283 278 269 257 249 246 245
334 341 20 13 324 300 298 324 303 288 286 292 295 296 299 301 304 303 296 287 281 282 287 287 284 284 285 286 287 287 284 283 281 280 280 271 250 240
341 10 315 286 287 276 235 258 279 289 304 304 302 305 308 309 306 298 291 285 281 279 279 278 278 281 280 281 285 286 285 283 280 278 277 276 274 269
329 288 234 238 252 276 290 280 299 320 319 309 310 311 310 307 303 305 305 304 299 295 290 286 281 280 280 281 282 283 283 282 281 280 279 277 274 271
323 304 311 323 322 328 329 329 325 323 318 317 314 312 309 307 306 307 304 303 299 299 301 300 295 290 284 283 282 281 282 282 281 282 281 279 276 273
307 319 334 335 333 332 329 327 327 328 325 318 314 311 309 308 308 307 305 302 300 301 302 303 303 300 294 285 271 281 283 285 285 283 280 278 277 275
308 339 339 335 331 328 325 323 322 322 320 316 314 313 312 311 309 308 307 305 303 302 301 301 299 296 295 293 292 284 291 292 289 285 281 278 277 277
344 344 339 336 332 329 327 326 324 322 320 317 315 313 312 310 308 307 305 305 304 303 300 298 295 295 295 295 295 293 285 281 284 284 284 282 280 278
348 343 339 336 332 330 328 325 322 319 318 317 315 315 314 312 307 305 303 301 298 296 296 296 297 297 293 290 286 286 289 281 274 277 284 285 283 282
343 340 338 333 330 327 325 324 322 319 318 317 317 315 313 310 306 303 301 300 298 296 296 296 298 297 294 289 289 292 295 295 287 271 261 261 270 273
340 337 332 331 331 329 327 324 321 319 320 320 318 314 311 307 304 301 299 297 296 296 297 298 299 298 295 292 291 291 293 296 296 294 286 271 256 253
Height
1561 1561 1562 1563 1563 1564 1564 1565 1566 1564 1564 1564 1565 1565 1564 1565 1564 1564 1565 1564 1564 1564 1564 1564 1564 1564 1564 1563 1563 1562 1562 1562 1561 1561 1562 1562 1562 1563
1558 1558 1559 1561 1561 1561 1562 1562 1562 1563 1562 1562 1562 1562 1561 1562 1561 1560 1560 1559 1559 1559 1559 1559 1559 1559 1559 1558 1558 1557 1557 1556 1556 1556 1556 1556 1556 1556
1556 1556 1556 1557 1558 1559 1559 1559 1559 1559 1559 1559 1559 1558 1556 1556 1557 1556 1556 1555 1555 1554 1554 1554 1553 1553 1553 1552 1552 1551 1551 1550 1550 1550 1550 1549 1549 1550
1553 1553 1554 1554 1554 1554 1555 1555 1555 1555 1555 1555 1555 1555 1553 1551 1551 1550 1551 1551 1551 1550 1548 1547 1547 1547 1546 1546 1545 1545 1544 1544 1544 1543 1543 1543 1543 1543
1549 1550 1550 1550 1550 1551 1550 1551 1551 1551 1550 1550 1550 1550 1549 1548 1547 1546 1545 1544 1544 1544 1542 1541 1540 1539 1539 1538 1538 1537 1537 1537 1537 1536 1536 1536 1536 1535
1545 1545 1545 1545 1545 1546 1546 1546 1546 1546 1546 1545 1544 1544 1543 1543 1542 1541 1540 1539 1538 1538 1537 1535 1533 1532 1531 1530 1529 1529 1529 1529 1528 1528 1528 1528 1528 1527
1541 1541 1541 1541 1541 1541 1542 1541 1541 1541 1540 1540 1539 1538 1538 1537 1536 1535 1534 1532 1531 1531 1529 1528 1528 1526 1524 1522 1521 1520 1519 1519 1519 1519 1519 1519 1519 1519
1538 1538 1537 1537 1537 1537 1536 1536 1536 1536 1535 1534 1534 1533 1531 1530 1529 1528 1527 1526 1524 1525 1522 1520 1519 1517 1516 1515 1514 1512 1510 1510 1510 1509 1509 1509 1508 1508
1535 1535 1535 1534 1533 1533 1532 1531 1531 1530 1529 1529 1528 1527 1525 1524 1522 1521 1520 1518 1516 1515 1514 1510 1510 1507 1506 1505 1504 1502 1501 1500 1499 1498 1498 1497 1497 1497
1533 1532 1532 1531 1530 1529 1529 1528 1527 1526 1524 1522 1521 1520 1519 1517 1516 1514 1512 1510 1507 1507 1505 1502 1501 1499 1497 1496 1494 1492 1490 1489 1488 1487 1486 1486 1485 1485
1531 1530 1529 1528 1526 1526 1525 1524 1522 1521 1519 1517 1515 1514 1512 1510 1509 1507 1506 1505 1502 1501 1500 1497 1494 1492 1489 1487 1485 1483 1480 1478 1477 1476 1475 1474 1473 1473
1530 1529 1527 1525 1524 1522 1521 1520 1519 1517 1515 1513 1510 1508 1506 1505 1503 1501 1500 1499 1496 1494 1493 1491 1487 1485 1480 1478 1477 1475 1472 1470 1468 1466 1464 1463 1462 1461
1530 1529 1526 1523 1521 1519 1517 1516 1514 1512 1510 1508 1507 1505 1503 1501 1499 1497 1495 1493 1491 1488 1487 1485 1482 1479 1475 1470 1469 1467 1465 1462 1460 1457 1455 1453 1452 1452
1527 1526 1523 1520 1517 1515 1514 1512 1510 1507 1506 1505 1503 1501 1499 1497 1495 1492 1489 1487 1484 1481 1479 1477 1475 1472 1468 1464 1460 1458 1457 1454 1452 1449 1446 1444 1443 1441
1524 1521 1519 1516 1514 1512 1510 1508 1506 1505 1503 1501 1499 1497 1495 1492 1489 1486 1483 1480 1477 1475 1473 1471 1468 1465 1462 1458 1454 1451 1448 1445 1443 1440 1437 1435 1433 1432
1522 1519 1516 1514 1512 1510 1508 1506 1504 1502 1499 1497 1495 1492 1489 1487 1484 1481 1478 1475 1472 1469 1468 1465 1461 1458 1454 1451 1447 1443 1440 1437 1434 1432 1429 1426 1423 1421
1517 1516 1516 1514 1511 1509 1506 1504 1501 1498 1496 1493 1490 1487 1484 1482 1479 1476 1473 1470 1467 1463 1460 1458 1455 1451 1448 1444 1440 1436 1432 1429 1426 1423 1419 1415 1413 1411
1515 1515 1513 1511 1508 1506 1503 1500 1498 1495 1492 1489 1486 1483 1480 1477 1474 1471 1468 1465 1461 1458 1454 1450 1447 1443 1439 1436 1434 1429 1425 1421 1417 1414 1410 1406 1401 1400
1515 1513 1511 1509 1506 1503 1500 1497 1495 1492 1489 1486 1483 1479 1476 1473 1469 1466 1463 1460 1456 1452 1448 1445 1441 1437 1433 1427 1424 1423 1418 1413 1409 1405 1401 1397 1392 1388
1514 1512 1509 1507 1504 1501 1498 1495 1491 1488 1485 1482 1479 1475 1472 1468 1465 1461 1458 1454 1450 1446 1442 1439 1436 1432 1427 1422 1416 1412 1410 1405 1400 1396 1391 1387 1383 1379
1512 1510 1507 1504 1501 1498 1495 1492 1488 1485 1481 1478 1475 1471 1467 1464 1460 1456 1452 1448 1444 1440 1436 1432 1429 1425 1420 1415 1409 1403 1400 1397 1393 1388 1383 1378 1373 1369
1511 1508 1505 1502 1499 1496 1492 1489 1485 1481 1478 1474 1470 1467 1463 1459 1455 1450 1447 1443 1439 1434 1430 1425 1421 1417 1413 1408 1402 1396 1391 1386 1382 1378 1374 1370 1365 1359
1509 1506 1503 1500 1497 1493 1490 1486 1482 1478 1475 1471 1466 1462 1458 1454 1450 1445 1441 1437 1433 1428 1424 1419 1415 1411 1407 1402 1396 1390 1384 1378 1373 1368 1363 1359 1356 1351